Ana Sayfa
METAR-TAF:

METAR-TAF

Havaalanları :

Clearfield-Lawrence Airport

Clearfield, Pensilvanya, Amerika Birleşik Devletleri

Enlem: 41-02-48N, Boylam: 078-24-42W, yükseklik: 462 m

Güncel hava durumu gözlemi

Rapor saat 20:54 UTC de 54 dakika önce yapıldı.
Rüzgar güneydan 6 kt
Sıcaklık 12°C
Nem 35%
Basınç 1011 hPa
Görüş mesafesi: 16.1 km
6000 ft yükseklikte az bulutlu

METAR: KFIG 242054Z AUTO 17006KT 10SM FEW060 12/M03 A2985 RMK AO2 SLP118 T01171033 58031

Saat: 16:48 (21:48 UTC)


TAF: eksik

4.000'den fazla havaalanı için hava durumu gözlemleri ve tahminleri (METAR ve TAF raporları).

Kullanılabilir istasyonlar harita üzerinde sarı ve kırmızı noktalarla gösterilir.

İstasyonun adını görmek için fareyi noktanın üzerinde gezdirin.

Sonrasında hava gözlem ve tahminlerini görmek için tıklayın.

Haritayı değiştirmek için: yaklaştırmak için siyah artı işaretli yeşil düğmeye ve uzaklaştırmak için de eksi işaretli düğmeye hızla tıklayın; bitişik haritalar için yeşil okları kullanın.


METAR-TAF: